Time,TemperatureF,DewpointF,PressureIn,WindDirection,WindDirectionDegrees,WindSpeedMPH,WindSpeedGustMPH,Humidity,HourlyPrecipIn,Conditions,Clouds,dailyrainin,SolarRadiationWatts/m^2,SoftwareType,DateUTC
2013-08-30 00:22:00,62.0,47.0,-100.00,ENE,60,0.0,4.0,57,-99.99,,,0.00,0.000000,,2013-08-30 06:22:00,
2013-08-30 00:32:00,62.0,47.0,-100.00,ENE,60,0.0,4.0,57,-99.99,,,0.00,0.000000,,2013-08-30 06:32:00,
2013-08-30 00:42:00,62.0,47.0,-100.00,ENE,60,0.0,4.0,57,-99.99,,,0.00,0.000000,,2013-08-30 06:42:00,
2013-08-30 00:53:00,62.0,47.0,-100.00,ENE,60,0.0,4.0,57,-99.99,,,0.00,0.000000,,2013-08-30 06:53:00,
2013-08-30 01:21:00,62.0,48.0,-100.00,East,96,0.0,4.0,61,0.00,,,0.00,0.000000,,2013-08-30 07:21:00,
2013-08-30 01:31:00,62.0,48.0,-100.00,East,96,0.0,4.0,61,0.00,,,0.00,0.000000,,2013-08-30 07:31:00,
2013-08-30 01:43:00,62.0,48.0,-100.00,East,96,0.0,4.0,61,0.00,,,0.00,0.000000,,2013-08-30 07:43:00,
2013-08-30 01:53:00,62.0,48.0,-100.00,East,96,0.0,4.0,61,0.00,,,0.00,0.000000,,2013-08-30 07:53:00,
2013-08-30 02:22:00,59.0,46.0,-100.00,NE,35,0.0,0.0,63,-99.99,,,0.00,0.000000,,2013-08-30 08:22:00,
2013-08-30 02:32:00,59.0,46.0,-100.00,NE,35,0.0,0.0,63,-99.99,,,0.00,0.000000,,2013-08-30 08:32:00,
2013-08-30 02:42:00,59.0,46.0,-100.00,NE,35,0.0,0.0,63,-99.99,,,0.00,0.000000,,2013-08-30 08:42:00,
2013-08-30 02:52:00,59.0,46.0,-100.00,NE,35,0.0,0.0,63,-99.99,,,0.00,0.000000,,2013-08-30 08:52:00,
2013-08-30 03:22:00,59.0,48.0,-100.00,North,357,0.0,3.0,67,-99.99,,,0.00,0.000000,,2013-08-30 09:22:00,
2013-08-30 03:33:00,59.0,48.0,-100.00,North,357,0.0,3.0,67,-99.99,,,0.00,0.000000,,2013-08-30 09:33:00,
2013-08-30 03:44:00,59.0,48.0,-100.00,North,357,0.0,3.0,67,-99.99,,,0.00,0.000000,,2013-08-30 09:44:00,
2013-08-30 03:53:00,59.0,48.0,-100.00,North,357,0.0,3.0,67,-99.99,,,0.00,0.000000,,2013-08-30 09:53:00,
2013-08-30 04:23:00,58.0,49.0,-100.00,ESE,118,0.0,0.0,71,-99.99,,,0.00,0.000000,,2013-08-30 10:23:00,
2013-08-30 04:32:00,58.0,49.0,-100.00,ESE,118,0.0,0.0,71,-99.99,,,0.00,0.000000,,2013-08-30 10:32:00,
2013-08-30 04:43:00,58.0,49.0,-100.00,ESE,118,0.0,0.0,71,-99.99,,,0.00,0.000000,,2013-08-30 10:43:00,
2013-08-30 05:22:00,59.0,50.0,-100.00,ESE,104,0.0,0.0,73,-99.99,,,0.00,0.000000,,2013-08-30 11:22:00,
2013-08-30 05:32:00,59.0,50.0,-100.00,ESE,104,0.0,0.0,73,-99.99,,,0.00,0.000000,,2013-08-30 11:32:00,
2013-08-30 05:42:00,59.0,50.0,-100.00,ESE,104,0.0,0.0,73,-99.99,,,0.00,0.000000,,2013-08-30 11:42:00,
2013-08-30 06:21:00,56.0,47.0,-100.00,North,355,0.0,0.0,73,-99.99,,,0.00,0.000000,,2013-08-30 12:21:00,
2013-08-30 06:32:00,56.0,47.0,-100.00,North,355,0.0,0.0,73,-99.99,,,0.00,0.000000,,2013-08-30 12:32:00,
2013-08-30 06:42:00,56.0,47.0,-100.00,North,355,0.0,0.0,73,-99.99,,,0.00,0.000000,,2013-08-30 12:42:00,
2013-08-30 06:52:00,56.0,47.0,-100.00,North,355,0.0,0.0,73,-99.99,,,0.00,0.000000,,2013-08-30 12:52:00,
2013-08-30 07:21:00,54.0,47.0,-100.00,NNW,348,0.0,0.0,76,-99.99,,,0.00,0.000000,,2013-08-30 13:21:00,
2013-08-30 07:32:00,54.0,47.0,-100.00,NNW,348,0.0,0.0,76,-99.99,,,0.00,0.000000,,2013-08-30 13:32:00,
2013-08-30 07:42:00,54.0,47.0,-100.00,NNW,348,0.0,0.0,76,-99.99,,,0.00,0.000000,,2013-08-30 13:42:00,
2013-08-30 07:52:00,54.0,47.0,-100.00,NNW,348,0.0,0.0,76,-99.99,,,0.00,0.000000,,2013-08-30 13:52:00,
2013-08-30 08:21:00,54.0,47.0,-100.00,NNW,330,0.0,0.0,77,0.00,,,0.00,18.000000,,2013-08-30 14:21:00,
2013-08-30 08:31:00,54.0,47.0,-100.00,NNW,330,0.0,0.0,77,0.00,,,0.00,18.000000,,2013-08-30 14:31:00,
2013-08-30 08:42:00,54.0,47.0,-100.00,NNW,330,0.0,0.0,77,0.00,,,0.00,18.000000,,2013-08-30 14:42:00,
2013-08-30 08:52:00,54.0,47.0,-100.00,NNW,330,0.0,0.0,77,0.00,,,0.00,18.000000,,2013-08-30 14:52:00,
2013-08-30 09:54:00,63.0,50.0,-100.00,NNE,29,0.0,0.0,62,0.00,,,0.00,178.000000,,2013-08-30 15:54:00,
2013-08-30 10:43:00,64.0,49.0,-100.00,West,277,0.0,0.0,59,0.00,,,0.00,378.000000,,2013-08-30 16:43:00,
2013-08-30 10:53:00,64.0,49.0,-100.00,West,277,0.0,0.0,59,0.00,,,0.00,378.000000,,2013-08-30 16:53:00,
2013-08-30 11:23:00,68.0,54.0,-100.00,West,263,2.0,4.0,60,0.00,,,0.00,642.000000,,2013-08-30 17:23:00,
2013-08-30 11:34:00,68.0,54.0,-100.00,West,263,2.0,4.0,60,0.00,,,0.00,642.000000,,2013-08-30 17:34:00,
2013-08-30 11:42:00,68.0,54.0,-100.00,West,263,2.0,4.0,60,0.00,,,0.00,642.000000,,2013-08-30 17:42:00,
2013-08-30 11:52:00,68.0,54.0,-100.00,West,263,2.0,4.0,60,0.00,,,0.00,642.000000,,2013-08-30 17:52:00,
2013-08-30 12:21:00,69.0,52.0,-100.00,West,273,4.0,8.0,54,0.00,,,0.00,886.000000,,2013-08-30 18:21:00,
2013-08-30 12:32:00,69.0,52.0,-100.00,West,273,4.0,8.0,54,0.00,,,0.00,886.000000,,2013-08-30 18:32:00,
2013-08-30 12:42:00,69.0,52.0,-100.00,West,273,4.0,8.0,54,0.00,,,0.00,886.000000,,2013-08-30 18:42:00,
2013-08-30 12:52:00,69.0,52.0,-100.00,West,273,4.0,8.0,54,0.00,,,0.00,886.000000,,2013-08-30 18:52:00,
2013-08-30 13:21:00,73.0,49.0,-100.00,South,169,4.0,10.0,42,0.00,,,0.00,1002.000000,,2013-08-30 19:21:00,
2013-08-30 13:32:00,73.0,49.0,-100.00,South,169,4.0,10.0,42,0.00,,,0.00,1002.000000,,2013-08-30 19:32:00,
2013-08-30 13:42:00,73.0,49.0,-100.00,South,169,4.0,10.0,42,0.00,,,0.00,1002.000000,,2013-08-30 19:42:00,
2013-08-30 13:53:00,73.0,49.0,-100.00,South,169,4.0,10.0,42,0.00,,,0.00,1002.000000,,2013-08-30 19:53:00,
2013-08-30 14:22:00,77.0,48.0,-100.00,WNW,282,5.0,12.0,36,0.00,,,0.00,1076.000000,,2013-08-30 20:22:00,
2013-08-30 14:32:00,77.0,48.0,-100.00,WNW,282,5.0,12.0,36,0.00,,,0.00,1076.000000,,2013-08-30 20:32:00,
2013-08-30 14:43:00,77.0,48.0,-100.00,WNW,282,5.0,12.0,36,0.00,,,0.00,1076.000000,,2013-08-30 20:43:00,
2013-08-30 14:52:00,77.0,48.0,-100.00,WNW,282,5.0,12.0,36,0.00,,,0.00,1076.000000,,2013-08-30 20:52:00,
2013-08-30 15:21:00,77.0,43.0,-100.00,WNW,282,5.0,11.0,30,0.00,,,0.00,1067.000000,,2013-08-30 21:21:00,
2013-08-30 15:34:00,77.0,43.0,-100.00,WNW,282,5.0,11.0,30,0.00,,,0.00,1067.000000,,2013-08-30 21:34:00,
2013-08-30 15:44:00,77.0,43.0,-100.00,WNW,282,5.0,11.0,30,0.00,,,0.00,1067.000000,,2013-08-30 21:44:00,
2013-08-30 15:54:00,77.0,43.0,-100.00,WNW,282,5.0,11.0,30,0.00,,,0.00,1067.000000,,2013-08-30 21:54:00,
2013-08-30 16:24:00,77.0,40.0,-100.00,NNW,328,7.0,13.0,27,0.00,,,0.00,984.000000,,2013-08-30 22:24:00,
2013-08-30 16:33:00,77.0,40.0,-100.00,NNW,328,7.0,13.0,27,0.00,,,0.00,984.000000,,2013-08-30 22:33:00,
2013-08-30 16:43:00,77.0,40.0,-100.00,NNW,328,7.0,13.0,27,0.00,,,0.00,984.000000,,2013-08-30 22:43:00,
2013-08-30 16:54:00,77.0,40.0,-100.00,NNW,328,7.0,13.0,27,0.00,,,0.00,984.000000,,2013-08-30 22:54:00,
2013-08-30 17:22:00,77.0,41.0,-100.00,NW,317,5.0,20.0,28,0.00,,,0.00,828.000000,,2013-08-30 23:22:00,
2013-08-30 17:33:00,77.0,41.0,-100.00,NW,317,5.0,20.0,28,0.00,,,0.00,828.000000,,2013-08-30 23:33:00,
2013-08-30 17:42:00,77.0,41.0,-100.00,NW,317,5.0,20.0,28,0.00,,,0.00,828.000000,,2013-08-30 23:42:00,
2013-08-30 17:53:00,77.0,41.0,-100.00,NW,317,5.0,20.0,28,0.00,,,0.00,828.000000,,2013-08-30 23:53:00,
2013-08-30 18:21:00,77.0,41.0,-100.00,NW,319,5.0,18.0,28,0.00,,,0.00,619.000000,,2013-08-31 00:21:00,
2013-08-30 18:32:00,77.0,41.0,-100.00,NW,319,5.0,18.0,28,0.00,,,0.00,619.000000,,2013-08-31 00:32:00,
2013-08-30 18:42:00,77.0,41.0,-100.00,NW,319,5.0,18.0,28,0.00,,,0.00,619.000000,,2013-08-31 00:42:00,
2013-08-30 18:52:00,77.0,41.0,-100.00,NW,319,5.0,18.0,28,0.00,,,0.00,619.000000,,2013-08-31 00:52:00,
2013-08-30 19:21:00,73.0,41.0,-100.00,SSW,211,4.0,13.0,31,0.00,,,0.00,121.000000,,2013-08-31 01:21:00,
2013-08-30 19:32:00,73.0,41.0,-100.00,SSW,211,4.0,13.0,31,0.00,,,0.00,121.000000,,2013-08-31 01:32:00,
2013-08-30 19:42:00,73.0,41.0,-100.00,SSW,211,4.0,13.0,31,0.00,,,0.00,121.000000,,2013-08-31 01:42:00,
2013-08-30 19:52:00,73.0,41.0,-100.00,SSW,211,4.0,13.0,31,0.00,,,0.00,121.000000,,2013-08-31 01:52:00,
2013-08-30 20:22:00,70.0,40.0,-100.00,North,11,4.0,14.0,33,0.00,,,0.00,114.000000,,2013-08-31 02:22:00,
2013-08-30 20:32:00,70.0,40.0,-100.00,North,11,4.0,14.0,33,0.00,,,0.00,114.000000,,2013-08-31 02:32:00,
2013-08-30 20:42:00,70.0,40.0,-100.00,North,11,4.0,14.0,33,0.00,,,0.00,114.000000,,2013-08-31 02:42:00,
2013-08-30 20:52:00,70.0,40.0,-100.00,North,11,4.0,14.0,33,0.00,,,0.00,114.000000,,2013-08-31 02:52:00,
2013-08-30 21:22:00,66.0,42.0,-100.00,ESE,123,1.0,13.0,42,0.00,,,0.00,6.000000,,2013-08-31 03:22:00,
2013-08-30 21:34:00,66.0,42.0,-100.00,ESE,123,1.0,13.0,42,0.00,,,0.00,6.000000,,2013-08-31 03:34:00,
2013-08-30 21:44:00,66.0,42.0,-100.00,ESE,123,1.0,13.0,42,0.00,,,0.00,6.000000,,2013-08-31 03:44:00,
2013-08-30 21:54:00,66.0,42.0,-100.00,ESE,123,1.0,13.0,42,0.00,,,0.00,6.000000,,2013-08-31 03:54:00,
2013-08-30 22:24:00,64.0,41.0,-100.00,SE,129,2.0,7.0,43,0.00,,,0.00,0.000000,,2013-08-31 04:24:00,
2013-08-30 22:34:00,64.0,41.0,-100.00,SE,129,2.0,7.0,43,0.00,,,0.00,0.000000,,2013-08-31 04:34:00,
2013-08-30 22:44:00,64.0,41.0,-100.00,SE,129,2.0,7.0,43,0.00,,,0.00,0.000000,,2013-08-31 04:44:00,
2013-08-30 22:54:00,64.0,41.0,-100.00,SE,129,2.0,7.0,43,0.00,,,0.00,0.000000,,2013-08-31 04:54:00,
2013-08-30 23:23:00,62.0,41.0,-100.00,SE,146,1.0,7.0,46,0.00,,,0.00,0.000000,,2013-08-31 05:23:00,
2013-08-30 23:34:00,62.0,41.0,-100.00,SE,146,1.0,7.0,46,0.00,,,0.00,0.000000,,2013-08-31 05:34:00,
2013-08-30 23:42:00,62.0,41.0,-100.00,SE,146,1.0,7.0,46,0.00,,,0.00,0.000000,,2013-08-31 05:42:00,
2013-08-30 23:52:00,62.0,41.0,-100.00,SE,146,1.0,7.0,46,0.00,,,0.00,0.000000,,2013-08-31 05:52:00,